This demonstration page uses our WeatherBlox Daily Observations layout. Learn more.

Left ArrowRight Arrow

41.12389, -100.76542

Hourly Observations for July 24, 2018

Temp ( °F °C ) Dew Point ( °F °C ) Humidity (%) Winds ( mph kmh ) Pressure ( in mb ) Visibility ( mi km ) Precip ( " mm )
12:53 am 00:53 Mostly Cloudy 64 17.8 62 16.7 93 93 Calm 30.19 1022 10 16 0.00 0.00
1:53 am 01:53 Partly Cloudy 63 17.2 62 16.7 97 97 Calm 30.18 1022 10 16 0.00 0.00
2:53 am 02:53 Clear 62 16.7 61 16.1 96 96 E 3 6 30.17 1022 10 16 0.00 0.00
3:53 am 03:53 Clear 62 16.7 62 16.7 100 100 Calm 30.17 1022 10 16 0.00 0.00
4:53 am 04:53 Clear 61 16.1 60 15.6 97 97 ESE 3 6 30.17 1022 10 16 0.00 0.00
5:53 am 05:53 Mostly Cloudy 60 15.6 60 15.6 100 100 ESE 7 11 30.17 1022 10 16 0.00 0.00
6:53 am 06:53 Partly Cloudy 61 16.1 61 16.1 100 100 W 5 7 30.20 1023 10 16 0.00 0.00
7:53 am 07:53 Mostly Cloudy 63 17.2 61 16.1 93 93 NNW 6 9 30.22 1023 10 16 0.00 0.00
8:53 am 08:53 Partly Cloudy 69 20.6 63 17.2 81 81 W 7 11 30.22 1023 10 16 0.00 0.03
9:53 am 09:53 Sunny 72 22.2 64 17.8 76 76 W 8 13 30.21 1023 10 16 0.00 0.00
10:53 am 10:53 Partly Cloudy 77 25 65 18.3 66 66 SSW 8 13 30.19 1023 10 16 0.00 0.00
11:53 am 11:53 Partly Cloudy 77 25 65 18.3 66 66 S 6 9 30.19 1022 10 16 0.00 0.00
12:53 pm 12:53 Mostly Cloudy 83 28.3 61 16.1 48 48 S 9 15 30.16 1022 10 16 0.00 0.00
1:53 pm 13:53 Mostly Sunny 84 28.9 58 14.4 41 41 S 8 13 30.15 1021 10 16 0.00 0.00
2:53 pm 14:53 Sunny 86 30 58 14.4 39 39 S 9 15 30.14 1021 10 16 0.00 0.00
3:53 pm 15:53 Sunny 86 30 59 15 40 40 SSW 8 13 30.12 1020 10 16 0.00 0.00
4:53 pm 16:53 Sunny 86 30 62 16.7 45 45 S 13 20 30.11 1020 10 16 0.00 0.00
5:53 pm 17:53 Sunny 86 30 62 16.7 45 45 S 9 15 30.09 1019 10 16 0.00 0.00
6:53 pm 18:53 Sunny 83 28.3 63 17.2 51 51 SSE 8 13 30.08 1019 10 16 0.00 0.00
7:53 pm 19:53 Sunny 82 27.8 64 17.8 55 55 SSE 7 11 30.07 1018 10 16 0.00 0.00
8:53 pm 20:53 Sunny 76 24.4 62 16.7 62 62 SSE 7 11 30.08 1019 10 16 0.00 0.00
9:53 pm 21:53 Clear 72 22.2 61 16.1 68 68 ESE 6 9 30.09 1019 10 16 0.00 0.00
10:53 pm 22:53 Clear 68 20 62 16.7 81 81 ESE 7 11 30.11 1020 10 16 0.00 0.00
11:53 pm 23:53 Clear 67 19.4 62 16.7 84 84 ESE 5 7 30.11 1020 10 16 0.00 0.00

Powered by AerisWeather